Location: Roland
(31.1349°N, 85.4372°W)
Time: 04:28:01
(UTC+00:00)

Courier 1B - Pass Details

Date: 22 April 2021
Orbit: 962 x 1209 km, 28.3° (Epoch: 07 May)

Event Time Altitude Azimuth Distance (km) Brightness Sun altitude
Rises 18:56:34 0° 263° (W) 3,735 10.8 64.3°
Reaches altitude 10° 18:59:19 10° 261° (W) 2,755 10.4 63.9°
Maximum altitude 19:05:54 70° 178° (S) 1,024 9.3 62.8°
Drops below altitude 10° 19:12:19 10° 96° (E) 2,685 9.7 61.7°
Sets 19:14:57 0° 94° (E) 3,634 10.3 61.3°
